Traverse City, MI

2:30 AM EDT on September 25, 2017 (GMT -0400)
Cherry Capital

Weather History for KTVC - December, 2013

Change the Weather History Date:

Sunday, December 22, 2013

  Actual Average Record
Temperature  
Mean Temperature 23 °F 25 °F  
Max Temperature 27 °F 31 °F 55 °F (1957)
Min Temperature 19 °F 19 °F -2 °F (1945)
Degree Days  
Heating Degree Days 42 40  
Month to date heating degree days 928 817  
Since 1 July heating degree days 2419 2436  
Moisture  
Dew Point 19 °F    
Average Humidity 83    
Maximum Humidity 88    
Minimum Humidity 77    
Precipitation  
Precipitation 0.23 in 0.08 in 0.60 in (2006)
Month to date precipitation 0.90 1.74  
Year to date precipitation 36.05 32.30  
Snow  
Snow 0.00 in - - ()
Snow Depth 12.00 in    
Sea Level Pressure  
Sea Level Pressure 29.85 in    
Wind  
Wind Speed 10 mph (NE)    
Max Wind Speed 20 mph    
Max Gust Speed 27 mph    
Visibility 3 miles    
Events Fog , Snow    
T = Trace of Precipitation, MM = Missing Value Source: NWS Daily Summary

Daily Weather History Graph

Daily Weather History Graph

Search for Another Location

Airport or City:

Trip Planner

Search our weather history database for the weather conditions in past years. The results will help you decide how hot, cold, wet, or windy it might be!

Date:

Astronomy

Dec. 22, 2013 Rise Set
Actual Time 8:17 AM EST 5:05 PM EST
Civil Twilight 7:43 AM EST 5:38 PM EST
Nautical Twilight 7:06 AM EST 6:15 PM EST
Astronomical Twilight 6:30 AM EST 6:51 PM EST
Moon 10:29 PM EST (12/22) 11:02 AM EST (12/22)
Length of Visible Light 9h 55m
Length of Day
8h 47m
Waning Gibbous, 77% of the Moon is Illuminated
Dec 22
Waning Gibbous
Dec 25
Last Quarter
Jan 1
New
Jan 7
First Quarter
Jan 15
Full

Hourly Weather History & Observations

Time (EST) Temp. Windchill Dew Point Humidity Pressure Visibility Wind Dir Wind Speed Gust Speed Precip Events Conditions
12:53 AM 26.1 °F 15.6 °F 21.0 °F 81% 29.82 in 10.0 mi ENE 11.5 mph - N/A   Overcast
1:40 AM 26.1 °F 15.6 °F 21.0 °F 81% 29.77 in 10.0 mi ENE 11.5 mph - N/A   Overcast
1:53 AM 27.0 °F 17.3 °F 21.0 °F 78% 29.79 in 10.0 mi ENE 10.4 mph - N/A   Overcast
2:41 AM 27.0 °F 16.7 °F 21.0 °F 78% 29.79 in 5.0 mi NE 11.5 mph - 0.00 in Snow Light Snow
2:53 AM 27.0 °F 16.7 °F 21.0 °F 78% 29.83 in 2.5 mi NE 11.5 mph - 0.00 in Snow Light Snow
3:08 AM 26.1 °F 14.5 °F 21.9 °F 84% 29.80 in 1.5 mi NE 13.8 mph - 0.00 in Snow Light Snow
3:17 AM 26.1 °F 15.6 °F 21.9 °F 84% 29.81 in 2.0 mi ENE 11.5 mph - 0.00 in Snow Light Snow
3:31 AM 26.1 °F 16.8 °F 21.9 °F 84% 29.80 in 2.0 mi NE 9.2 mph - 0.01 in Snow Light Snow
3:53 AM 26.1 °F 16.2 °F 21.9 °F 84% 29.84 in 1.8 mi NE 10.4 mph - 0.02 in Snow Light Snow
4:09 AM 26.1 °F 16.2 °F 21.9 °F 84% 29.79 in 1.0 mi NE 10.4 mph - 0.00 in Snow Light Snow
4:16 AM 26.1 °F 14.5 °F 21.9 °F 84% 29.80 in 0.8 mi NE 13.8 mph - 0.00 in Snow Light Snow
4:38 AM 26.1 °F 15.0 °F 23.0 °F 88% 29.76 in 0.8 mi NE 12.7 mph - 0.01 in Snow Light Snow
4:53 AM 25.0 °F 14.2 °F 21.9 °F 88% 29.79 in 0.8 mi NE 11.5 mph - 0.02 in Snow Light Snow
5:00 AM 25.0 °F 14.2 °F 21.9 °F 88% 29.76 in 1.0 mi NE 11.5 mph - 0.00 in Snow Light Snow
5:24 AM 25.0 °F 14.8 °F 21.9 °F 88% 29.73 in 2.5 mi NE 10.4 mph - 0.00 in Snow Light Snow
5:32 AM 25.0 °F 16.3 °F 21.9 °F 88% 29.74 in 3.0 mi NE 8.1 mph - 0.00 in Snow Light Snow
5:39 AM 25.0 °F 15.5 °F 21.0 °F 85% 29.73 in 4.0 mi NE 9.2 mph - 0.00 in Snow Light Snow
5:46 AM 25.0 °F 14.8 °F 21.0 °F 85% 29.74 in 5.0 mi NE 10.4 mph - 0.00 in Snow Light Snow
5:53 AM 25.0 °F 14.8 °F 21.0 °F 85% 29.77 in 5.0 mi NE 10.4 mph - 0.00 in Snow Light Snow
6:16 AM 25.0 °F 13.1 °F 21.0 °F 85% 29.72 in 1.8 mi NE 13.8 mph - 0.01 in Snow Light Snow
6:29 AM 25.0 °F 15.5 °F 21.0 °F 85% 29.74 in 1.0 mi NE 9.2 mph - 0.01 in Snow Light Snow
6:36 AM 25.0 °F 14.2 °F 21.0 °F 85% 29.74 in 1.0 mi NE 11.5 mph - 0.01 in Snow Light Snow
6:53 AM 24.1 °F 14.4 °F 21.0 °F 88% 29.78 in 1.2 mi NE 9.2 mph - 0.02 in Snow Light Snow
7:48 AM 24.8 °F 13.4 °F 19.4 °F 80% 29.75 in 1.5 mi NE 12.7 mph - 0.02 in Snow Light Snow
7:53 AM 24.1 °F 13.1 °F 19.9 °F 84% 29.78 in 1.5 mi NE 11.5 mph - 0.02 in Snow Light Snow
8:19 AM 24.1 °F 12.0 °F 19.9 °F 84% 29.74 in 0.5 mi NE 13.8 mph 21.9 mph 0.01 in Fog , Snow Snow
8:39 AM 24.1 °F 12.5 °F 21.0 °F 88% 29.74 in 0.5 mi NE 12.7 mph 23.0 mph 0.03 in Fog , Snow Snow
8:53 AM 24.1 °F 11.5 °F 19.9 °F 84% 29.78 in 0.5 mi NNE 15.0 mph 21.9 mph 0.03 in Fog , Snow Snow
9:00 AM 24.1 °F 11.0 °F 19.9 °F 84% 29.75 in 0.8 mi NE 16.1 mph 21.9 mph 0.00 in Snow Light Snow
9:12 AM 24.1 °F 11.5 °F 19.9 °F 84% 29.75 in 0.8 mi NNE 15.0 mph - 0.01 in Snow Light Snow
9:32 AM 24.1 °F 11.0 °F 19.9 °F 84% 29.75 in 1.0 mi NE 16.1 mph 25.3 mph 0.01 in Snow Light Snow
9:53 AM 24.1 °F 12.0 °F 19.9 °F 84% 29.78 in 1.5 mi NE 13.8 mph - 0.01 in Snow Light Snow
10:53 AM 24.1 °F 12.5 °F 19.0 °F 81% 29.82 in 1.5 mi NNE 12.7 mph 24.2 mph 0.01 in Snow Light Snow
11:25 AM 23.0 °F 9.6 °F 19.9 °F 88% 29.81 in 0.8 mi NE 16.1 mph 21.9 mph 0.02 in Snow Light Snow
11:53 AM 23.0 °F 12.4 °F 19.9 °F 88% 29.84 in 0.5 mi NE 10.4 mph - 0.05 in Snow Light Snow
12:00 PM 23.0 °F 11.7 °F 19.9 °F 88% 29.81 in 0.5 mi NNE 11.5 mph - 0.00 in Snow Light Snow
12:53 PM 21.9 °F 9.8 °F 18.0 °F 85% 29.84 in 0.8 mi NE 12.7 mph - 0.03 in Snow Light Snow
1:00 PM 21.9 °F 10.4 °F 19.0 °F 89% 29.82 in 0.8 mi NE 11.5 mph - 0.00 in Snow Light Snow
1:24 PM 23.0 °F 13.1 °F 19.0 °F 85% 29.80 in 1.0 mi ENE 9.2 mph - 0.01 in Snow Light Snow
1:53 PM 23.0 °F 11.1 °F 18.0 °F 81% 29.82 in 1.5 mi NNE 12.7 mph - 0.01 in Snow Light Snow
2:03 PM 23.0 °F 11.7 °F 17.1 °F 78% 29.80 in 2.0 mi NNE 11.5 mph - 0.00 in Snow Light Snow
2:19 PM 23.0 °F 13.1 °F 17.1 °F 78% 29.80 in 2.0 mi NNE 9.2 mph - 0.00 in Snow Light Snow
2:31 PM 23.0 °F 12.4 °F 17.1 °F 78% 29.82 in 3.0 mi NNE 10.4 mph - 0.00 in Snow Light Snow
2:46 PM 23.0 °F 13.1 °F 17.1 °F 78% 29.83 in 4.0 mi NNE 9.2 mph - 0.00 in Snow Light Snow
2:53 PM 23.0 °F 14.7 °F 17.1 °F 78% 29.87 in 5.0 mi NNE 6.9 mph - 0.00 in Snow Light Snow
3:07 PM 23.0 °F 12.4 °F 17.1 °F 78% 29.84 in 8.0 mi NE 10.4 mph - 0.00 in Snow Light Snow
3:53 PM 21.9 °F 11.0 °F 17.1 °F 82% 29.89 in 7.0 mi NNE 10.4 mph - 0.00 in Snow Light Snow
4:53 PM 21.0 °F 11.4 °F 15.1 °F 78% 29.94 in 8.0 mi ENE 8.1 mph - 0.00 in Snow Light Snow
5:16 PM 21.0 °F 10.6 °F 15.1 °F 78% 29.91 in 8.0 mi ENE 9.2 mph - 0.00 in Snow Light Snow
5:53 PM 21.0 °F 11.4 °F 15.1 °F 78% 29.96 in 8.0 mi ENE 8.1 mph - 0.00 in Snow Light Snow
6:48 PM 19.4 °F 9.5 °F 15.8 °F 86% 29.95 in 2.0 mi ENE 8.1 mph - 0.00 in Snow Light Snow
6:53 PM 19.9 °F 10.1 °F 15.1 °F 81% 29.98 in 2.0 mi ENE 8.1 mph - 0.01 in Snow Light Snow
7:27 PM 19.9 °F 9.3 °F 15.1 °F 81% 29.95 in 2.0 mi NNE 9.2 mph - 0.00 in Snow Light Snow
7:53 PM 19.9 °F 9.3 °F 15.1 °F 81% 29.98 in 2.5 mi ENE 9.2 mph - 0.00 in Snow Light Snow
8:10 PM 19.9 °F 11.1 °F 16.0 °F 85% 29.96 in 2.5 mi ENE 6.9 mph - 0.00 in Snow Light Snow
8:39 PM 19.9 °F 10.1 °F 15.1 °F 81% 29.97 in 3.0 mi ENE 8.1 mph - 0.00 in Snow Light Snow
8:53 PM 19.9 °F 10.1 °F 15.1 °F 81% 30.00 in 3.0 mi ENE 8.1 mph - 0.00 in Snow Light Snow
9:36 PM 19.0 °F 8.2 °F 15.1 °F 85% 29.98 in 2.5 mi NE 9.2 mph - 0.00 in Snow Light Snow
9:53 PM 19.0 °F 11.1 °F 15.1 °F 85% 30.02 in 2.0 mi NE 5.8 mph - 0.00 in Snow Light Snow
10:18 PM 19.0 °F 11.1 °F 14.0 °F 81% 30.00 in 2.0 mi NE 5.8 mph - 0.00 in Snow Light Snow
10:40 PM 19.0 °F 10.0 °F 14.0 °F 81% 30.00 in 1.8 mi ENE 6.9 mph - 0.00 in Snow Light Snow
10:53 PM 19.0 °F 10.0 °F 14.0 °F 81% 30.03 in 2.0 mi ENE 6.9 mph - 0.00 in Snow Light Snow
11:12 PM 19.0 °F 11.1 °F 14.0 °F 81% 30.00 in 2.0 mi ENE 5.8 mph - 0.00 in Snow Light Snow
11:25 PM 19.0 °F 9.0 °F 14.0 °F 81% 30.01 in 2.0 mi NE 8.1 mph - 0.00 in Snow Light Snow
11:31 PM 19.0 °F 10.0 °F 14.0 °F 81% 30.01 in 1.8 mi NE 6.9 mph - 0.00 in Snow Light Snow
11:50 PM 19.4 °F 10.4 °F 14.0 °F 80% 30.02 in 2.0 mi NE 6.9 mph - 0.00 in Snow Light Snow
11:53 PM 19.0 °F 11.1 °F 14.0 °F 81% 30.05 in 2.5 mi NE 5.8 mph - 0.00 in Snow Light Snow